EW6114 Weather Reports


Display with metric or nautical units.
time (UTC)temp
F
wind
direction
speed
MPH
gust
MPH
rain 1hr
in
rain 24hr
in
rain mn
in
humidity
%
barometer
mb
20260509002340 0 197 0.0 0.0 0.00 0.00 0.00 1077.2
20260509001800 0 166 0.0 0.0 0.00 0.00 0.00 1077.2
20260509001245 0 189 0.0 0.0 0.00 0.00 0.00 1077.2
20260509000155 0 123 0.0 0.0 0.00 0.00 0.00 1077.3
20260508235653 0 175 0.0 0.0 0.00 0.00 0.00 1077.3
20260508235145 0 143 0.0 0.0 0.00 0.00 0.00 1077.4
20260508234641 0 153 0.0 0.0 0.00 0.00 0.00 1077.4
20260508234316 0 153 0.0 0.0 0.00 0.00 0.00 1077.4
20260508233517 0 153 0.0 0.0 0.00 0.00 0.00 1077.4
20260508232450 0 161 0.0 0.0 0.00 0.00 0.00 1077.3
20260508231948 0 177 0.0 0.0 0.00 0.00 0.00 1077.3
20260508231442 0 163 0.0 0.0 0.00 0.00 0.00 1077.3
20260508230933 0 173 0.0 0.0 0.00 0.00 0.00 1077.2
20260508230657 0 116 0.0 0.0 0.00 0.00 0.00 1077.2
20260508225853 0 204 0.0 0.0 0.00 0.00 0.00 1077.2
20260508225624 0 146 0.0 0.0 0.00 0.00 0.00 1077.1
20260508225124 0 185 0.0 0.0 0.00 0.00 0.00 1077.0
20260508224624 0 131 0.0 0.0 0.00 0.00 0.00 1076.9
20260508223847 0 0.0 0.0 0.00 0.00 0.00 1076.8
20260508223256 0 0.0 0.0 0.00 0.00 0.00 1076.8
20260508222746 0 0.0 0.0 0.00 0.00 0.00 1076.8
20260508222154 0 0.0 0.0 0.00 0.00 0.00 1076.8
20260508221633 0 0.0 0.0 0.00 0.00 0.00 1076.8
20260508221046 0 0.0 0.0 0.00 0.00 0.00 1076.8
20260508220453 0 0.0 0.0 0.00 0.00 0.00 1076.8
20260508215935 0 0.0 0.0 0.00 0.00 0.00 1076.7
20260508215347 0 0.0 0.0 0.00 0.00 0.00 1076.7
20260508214756 0 0.0 0.0 0.00 0.00 0.00 1076.7
20260508214253 0 0.0 0.0 0.00 0.00 0.00 1076.6
20260508214022 0 0.0 0.0 0.00 0.00 0.00 1076.5
20260508213517 0 0.0 0.0 0.00 0.00 0.00 1076.4
20260508212745 0 0.0 0.0 0.00 0.00 0.00 1076.3
20260508212245 0 0.0 0.0 0.00 0.00 0.00 1076.4
20260508211650 0 138 0.0 0.0 0.00 0.00 0.00 1076.3
20260508211055 0 138 0.0 0.0 0.00 0.00 0.00 1076.3
20260508210555 0 138 0.0 0.0 0.00 0.00 0.00 1076.2
20260508210050 0 138 0.0 0.0 0.00 0.00 0.00 1076.3
20260508205542 0 138 0.0 0.0 0.00 0.00 0.00 1076.2
20260508205038 0 138 0.0 0.0 0.00 0.00 0.00 1076.2
20260508204801 0 138 0.0 0.0 0.00 0.00 0.00 1076.2
20260508203952 0 138 0.0 0.0 0.00 0.00 0.00 1076.1
20260508203711 0 138 0.0 0.0 0.00 0.00 0.00 1076.1
20260508203202 0 139 0.0 0.0 0.00 0.00 0.00 1076.0
20260508202425 0 138 0.0 0.0 0.00 0.00 0.00 1076.0
20260508201847 0 138 0.0 0.0 0.00 0.00 0.00 1075.9
20260508201336 0 138 0.0 0.0 0.00 0.00 0.00 1075.9
20260508200801 0 138 0.0 0.0 0.00 0.00 0.00 1075.9
20260508200242 0 138 0.0 0.0 0.00 0.00 0.00 1075.9
20260508195736 0 138 0.0 0.0 0.00 0.00 0.00 1075.8
20260508195154 0 138 0.0 0.0 0.00 0.00 0.00 1075.8
20260508194621 0 138 0.0 0.0 0.00 0.00 0.00 1075.8
20260508194053 0 138 0.0 0.0 0.00 0.00 0.00 1075.8
20260508193552 0 138 0.0 0.0 0.00 0.00 0.00 1075.7
20260508193041 0 138 0.0 0.0 0.00 0.00 0.00 1075.7
20260508192532 0 138 0.0 0.0 0.00 0.00 0.00 1075.7
20260508191949 0 138 0.0 0.0 0.00 0.00 0.00 1075.7
20260508191417 0 138 0.0 0.0 0.00 0.00 0.00 1075.7
20260508185843 0 347 0.0 0.0 0.00 0.00 0.00 1075.7
20260508185259 0 139 0.0 0.0 0.00 0.00 0.00 1075.6
20260508184227 0 140 0.0 0.0 0.00 0.00 0.00 1075.6
20260508183924 0 140 0.0 0.0 0.00 0.00 0.00 1075.6
20260508183152 0 140 0.0 0.0 0.00 0.00 0.00 1075.6
20260508182924 0 140 0.0 0.0 0.00 0.00 0.00 1075.7
20260508182152 0 140 0.0 0.0 0.00 0.00 0.00 1075.7
20260508181650 0 140 0.0 0.0 0.00 0.00 0.00 1075.8
20260508181144 0 140 0.0 0.0 0.00 0.00 0.00 1075.7
20260508180629 0 140 0.0 0.0 0.00 0.00 0.00 1075.7
20260508180051 0 142 0.0 0.0 0.00 0.00 0.00 1075.8
20260508175549 0 142 0.0 0.0 0.00 0.00 0.00 1075.8
20260508175044 0 142 0.0 0.0 0.00 0.00 0.00 1075.8
20260508174541 0 133 0.0 0.0 0.00 0.00 0.00 1075.8
20260508174023 0 132 0.0 0.0 0.00 0.00 0.00 1075.9
20260508173510 0 150 0.0 0.0 0.00 0.00 0.00 1075.9
20260508173003 0 148 0.0 0.0 0.00 0.00 0.00 1076.0
20260508172447 0 147 0.0 0.0 0.00 0.00 0.00 1076.0
20260508171948 0 105 0.0 0.0 0.00 0.00 0.00 1075.9
20260508171718 0 158 0.0 0.0 0.00 0.00 0.00 1075.9
20260508170931 0 141 0.0 0.0 0.00 0.00 0.00 1075.9
20260508170419 0 347 0.0 0.0 0.00 0.00 0.00 1075.9
20260508165922 0 156 0.0 0.0 0.00 0.00 0.00 1075.8
20260508165356 0 182 0.0 0.0 0.00 0.00 0.00 1075.8
20260508165115 0 119 0.0 0.0 0.00 0.00 0.00 1075.8
20260508164533 0 160 0.0 0.0 0.00 0.00 0.00 1075.8
20260508163753 0 159 0.0 0.0 0.00 0.00 0.00 1075.9
20260508163252 0 160 0.0 0.0 0.00 0.00 0.00 1075.8
20260508162751 0 159 0.0 0.0 0.00 0.00 0.00 1075.8
20260508162239 0 159 0.0 0.0 0.00 0.00 0.00 1075.8
20260508161739 0 159 0.0 0.0 0.00 0.00 0.00 1075.8
20260508161150 0 162 0.0 0.0 0.00 0.00 0.00 1075.8
20260508160650 0 160 0.0 0.0 0.00 0.00 0.00 1075.8
20260508155614 0 151 0.0 0.0 0.00 0.00 0.00 1076.0
20260508154812 0 172 0.0 0.0 0.00 0.00 0.00 1075.9
20260508154025 0 135 0.0 0.0 0.00 0.00 0.00 1076.0
20260508153522 0 164 0.0 0.0 0.00 0.00 0.00 1076.0
20260508153210 0 164 0.0 0.0 0.00 0.00 0.00 1075.9
20260508152400 0 164 0.0 0.0 0.00 0.00 0.00 1076.0
20260508151828 0 164 0.0 0.0 0.00 0.00 0.00 1075.9
20260508151547 0 172 0.0 0.0 0.00 0.00 0.00 1076.0
20260508151042 0 173 0.0 0.0 0.00 0.00 0.00 1076.0
20260508150253 0 142 0.0 0.0 0.00 0.00 0.00 1076.1
20260508145751 0 180 0.0 0.0 0.00 0.00 0.00 1076.2
20260508145249 0 158 0.0 0.0 0.00 0.00 0.00 1076.1
20260508144728 0 157 0.0 0.0 0.00 0.00 0.00 1076.1
20260508144154 0 156 0.0 0.0 0.00 0.00 0.00 1076.2
20260508143651 0 156 0.0 0.0 0.00 0.00 0.00 1076.1
20260508143417 0 189 0.0 0.0 0.00 0.00 0.00 1076.2
20260508142917 0 188 0.0 0.0 0.00 0.00 0.00 1076.3
20260508142145 0 347 0.0 0.0 0.00 0.00 0.00 1076.3
20260508141643 0 347 0.0 0.0 0.00 0.00 0.00 1076.3
20260508141110 0 347 0.0 0.0 0.00 0.00 0.00 1076.3
20260508140546 0 347 0.0 0.0 0.00 0.00 0.00 1076.3
20260508140047 0 347 0.0 0.0 0.00 0.00 0.00 1076.3
20260508135513 0 347 0.0 0.0 0.00 0.00 0.00 1076.4
20260508134959 0 347 0.0 0.0 0.00 0.00 0.00 1076.4
20260508134459 0 166 0.0 0.0 0.00 0.00 0.00 1076.5
20260508133946 0 183 0.0 0.0 0.00 0.00 0.00 1076.5
20260508133438 0 171 0.0 0.0 0.00 0.00 0.00 1076.5
20260508132928 0 168 0.0 0.0 0.00 0.00 0.00 1076.6
20260508132401 0 347 0.0 0.0 0.00 0.00 0.00 1076.5
20260508131853 0 347 0.0 0.0 0.00 0.00 0.00 1076.6
20260508131354 0 347 0.0 0.0 0.00 0.00 0.00 1076.6
20260508130847 0 347 0.0 0.0 0.00 0.00 0.00 1076.7
20260508130335 0 142 0.0 0.0 0.00 0.00 0.00 1076.7
20260508125752 0 142 0.0 0.0 0.00 0.00 0.00 1076.7
20260508125254 0 148 0.0 0.0 0.00 0.00 0.00 1076.7
20260508124749 0 144 0.0 0.0 0.00 0.00 0.00 1076.8
20260508124229 0 144 0.0 0.0 0.00 0.00 0.00 1076.8
20260508123651 0 151 0.0 0.0 0.00 0.00 0.00 1076.9
20260508123126 0 185 0.0 0.0 0.00 0.00 0.00 1076.8
20260508122612 0 169 0.0 0.0 0.00 0.00 0.00 1076.9
20260508122112 0 172 0.0 0.0 0.00 0.00 0.00 1076.9
20260508121556 0 192 0.0 0.0 0.00 0.00 0.00 1076.8
20260508121055 0 171 0.0 0.0 0.00 0.00 0.00 1076.8
20260508120548 0 162 0.0 0.0 0.00 0.00 0.00 1076.8
20260508120045 0 182 0.0 0.0 0.00 0.00 0.00 1076.8
20260508115545 0 188 0.0 0.0 0.00 0.00 0.00 1076.9
20260508115246 0 169 0.0 0.0 0.00 0.00 0.00 1076.8
20260508114455 0 156 0.0 0.0 0.00 0.00 0.00 1076.8
20260508113952 0 144 0.0 0.0 0.00 0.00 0.00 1076.8
20260508113455 0 154 0.0 0.0 0.00 0.00 0.00 1076.8
20260508112953 0 165 0.0 0.0 0.00 0.00 0.00 1076.9
20260508112449 0 189 0.0 0.0 0.00 0.00 0.00 1076.8
20260508111933 0 189 0.0 0.0 0.00 0.00 0.00 1076.8
20260508111425 0 189 0.0 0.0 0.00 0.00 0.00 1076.7
20260508110847 0 189 0.0 0.0 0.00 0.00 0.00 1076.7
20260508110301 0 189 0.0 0.0 0.00 0.00 0.00 1076.7
20260508105749 0 189 0.0 0.0 0.00 0.00 0.00 1076.7
20260508105243 0 190 0.0 0.0 0.00 0.00 0.00 1076.7
20260508104738 0 198 0.0 0.0 0.00 0.00 0.00 1076.6
20260508104208 0 199 0.0 0.0 0.00 0.00 0.00 1076.6
20260508103706 0 184 0.0 0.0 0.00 0.00 0.00 1076.5
20260508102919 0 184 0.0 0.0 0.00 0.00 0.00 1076.7
20260508102137 0 183 0.0 0.0 0.00 0.00 0.00 1076.6
20260508101605 0 192 0.0 0.0 0.00 0.00 0.00 1076.5
20260508101052 0 189 0.0 0.0 0.00 0.00 0.00 1076.6
20260508100550 0 192 0.0 0.0 0.00 0.00 0.00 1076.5
20260508100317 0 200 0.0 0.0 0.00 0.00 0.00 1076.5
20260508095534 0 201 0.0 0.0 0.00 0.00 0.00 1076.5
20260508095245 0 200 0.0 0.0 0.00 0.00 0.00 1076.5
20260508094444 0 201 0.0 0.0 0.00 0.00 0.00 1076.6
20260508094201 0 201 0.0 0.0 0.00 0.00 0.00 1076.5
20260508093426 0 201 0.0 0.0 0.00 0.00 0.00 1076.5
20260508093149 0 195 0.0 0.0 0.00 0.00 0.00 1076.4
20260508092350 0 223 0.0 0.0 0.00 0.00 0.00 1076.4
20260508091850 0 221 0.0 0.0 0.00 0.00 0.00 1076.3
20260508091315 0 196 0.0 0.0 0.00 0.00 0.00 1076.4
20260508090748 0 189 0.0 0.0 0.00 0.00 0.00 1076.4
20260508085648 0 189 0.0 0.0 0.00 0.00 0.00 1076.3
20260508085100 0 189 0.0 0.0 0.00 0.00 0.00 1076.3
20260508084538 0 189 0.0 0.0 0.00 0.00 0.00 1076.4
20260508084038 0 188 0.0 0.0 0.00 0.00 0.00 1076.2
20260508083539 0 168 0.0 0.0 0.00 0.00 0.00 1076.2
20260508083248 0 167 0.0 0.0 0.00 0.00 0.00 1076.0
20260508082504 0 194 0.0 0.0 0.00 0.00 0.00 1076.1
20260508081948 0 165 0.0 0.0 0.00 0.00 0.00 1076.0
20260508081435 0 187 0.0 0.0 0.00 0.00 0.00 1075.9
20260508080909 0 187 0.0 0.0 0.00 0.00 0.00 1075.9
20260508080353 0 188 0.0 0.0 0.00 0.00 0.00 1075.8
20260508075844 0 188 0.0 0.0 0.00 0.00 0.00 1075.8
20260508075330 0 200 0.0 0.0 0.00 0.00 0.00 1075.7
20260508074752 0 190 0.0 0.0 0.00 0.00 0.00 1075.6
20260508074237 0 135 0.0 0.0 0.00 0.00 0.00 1075.6
20260508073232 0 180 0.0 0.0 0.00 0.00 0.00 1075.6
20260508072646 0 191 0.0 0.0 0.00 0.00 0.00 1075.6
20260508072145 0 193 0.0 0.0 0.00 0.00 0.00 1075.6
20260508071639 0 189 0.0 0.0 0.00 0.00 0.00 1075.6
20260508071129 0 181 0.0 0.0 0.00 0.00 0.00 1075.6
20260508070616 0 179 0.0 0.0 0.00 0.00 0.00 1075.6
20260508070109 0 169 0.0 0.0 0.00 0.00 0.00 1075.5
20260508065607 0 202 0.0 0.0 0.00 0.00 0.00 1075.6
20260508065108 0 213 0.0 0.0 0.00 0.00 0.00 1075.6
20260508064834 0 184 0.0 0.0 0.00 0.00 0.00 1075.6
20260508064103 0 192 0.0 0.0 0.00 0.00 0.00 1075.6
20260508063600 0 185 0.0 0.0 0.00 0.00 0.00 1075.5
20260508063055 0 181 0.0 0.0 0.00 0.00 0.00 1075.5
20260508062545 0 167 0.0 0.0 0.00 0.00 0.00 1075.5
20260508062045 0 135 0.0 0.0 0.00 0.00 0.00 1075.5
20260508061545 0 168 0.0 0.0 0.00 0.00 0.00 1075.4
20260508061045 0 182 0.0 0.0 0.00 0.00 0.00 1075.5
20260508060533 0 185 0.0 0.0 0.00 0.00 0.00 1075.4
20260508060005 0 192 0.0 0.0 0.00 0.00 0.00 1075.4
20260508055459 0 176 0.0 0.0 0.00 0.00 0.00 1075.4
20260508054947 0 204 0.0 0.0 0.00 0.00 0.00 1075.4
20260508054447 0 246 0.0 0.0 0.00 0.00 0.00 1075.4
20260508053947 0 189 0.0 0.0 0.00 0.00 0.00 1075.4
20260508053437 0 185 0.0 0.0 0.00 0.00 0.00 1075.4
20260508052931 0 221 0.0 0.0 0.00 0.00 0.00 1075.5
20260508052430 0 162 0.0 0.0 0.00 0.00 0.00 1075.4
20260508052156 0 178 0.0 0.0 0.00 0.00 0.00 1075.4
20260508050923 0 197 0.0 0.0 0.00 0.00 0.00 1075.4
20260508050423 0 181 0.0 0.0 0.00 0.00 0.00 1075.5
20260508045921 0 195 0.0 0.0 0.00 0.00 0.00 1075.5
20260508045417 0 225 0.0 0.0 0.00 0.00 0.00 1075.6
20260508044917 0 347 0.0 0.0 0.00 0.00 0.00 1075.5
20260508044413 0 238 0.0 0.0 0.00 0.00 0.00 1075.5
20260508043911 0 191 0.0 0.0 0.00 0.00 0.00 1075.6
20260508043354 0 192 0.0 0.0 0.00 0.00 0.00 1075.7
20260508042849 0 210 0.0 0.0 0.00 0.00 0.00 1075.8
20260508042347 0 197 0.0 0.0 0.00 0.00 0.00 1075.8
20260508041843 0 187 0.0 0.0 0.00 0.00 0.00 1075.8
20260508041337 0 209 0.0 0.0 0.00 0.00 0.00 1075.9
20260508040837 0 192 0.0 0.0 0.00 0.00 0.00 1075.9
20260508040334 0 180 0.0 0.0 0.00 0.00 0.00 1076.0
20260508035834 0 195 0.0 0.0 0.00 0.00 0.00 1075.9
20260508035605 0 185 0.0 0.0 0.00 0.00 0.00 1076.0
20260508034833 0 193 0.0 0.0 0.00 0.00 0.00 1076.0
20260508034333 0 190 0.0 0.0 0.00 0.00 0.00 1076.0
20260508033833 0 189 0.0 0.0 0.00 0.00 0.00 1076.1
20260508033333 0 176 0.0 0.0 0.00 0.00 0.00 1076.2
20260508032831 0 204 0.0 0.0 0.00 0.00 0.00 1076.2
20260508032327 0 203 0.0 0.0 0.00 0.00 0.00 1076.3
20260508031817 0 179 0.0 0.0 0.00 0.00 0.00 1076.3
20260508031308 0 203 0.0 0.0 0.00 0.00 0.00 1076.3
20260508030759 0 199 0.0 0.0 0.00 0.00 0.00 1076.4
20260508030259 0 188 0.0 0.0 0.00 0.00 0.00 1076.5
20260508030029 0 217 0.0 0.0 0.00 0.00 0.00 1076.6
20260508025252 0 180 0.0 0.0 0.00 0.00 0.00 1076.6
20260508024239 0 178 0.0 0.0 0.00 0.00 0.00 1076.8
20260508023738 0 347 0.0 0.0 0.00 0.00 0.00 1076.7
20260508023239 0 193 0.0 0.0 0.00 0.00 0.00 1076.8
20260508022736 0 199 0.0 0.0 0.00 0.00 0.00 1076.9
20260508022237 0 198 0.0 0.0 0.00 0.00 0.00 1077.0
20260508021736 0 193 0.0 0.0 0.00 0.00 0.00 1077.1
20260508021506 0 173 0.0 0.0 0.00 0.00 0.00 1077.1
20260508020956 0 176 0.0 0.0 0.00 0.00 0.00 1077.2
20260508020223 0 200 0.0 0.0 0.00 0.00 0.00 1077.2
20260508015723 0 222 0.0 0.0 0.00 0.00 0.00 1077.2
20260508015223 0 173 0.0 0.0 0.00 0.00 0.00 1077.2
20260508014721 0 195 0.0 0.0 0.00 0.00 0.00 1077.2
20260508014221 0 192 0.0 0.0 0.00 0.00 0.00 1077.4
20260508013215 0 198 0.0 0.0 0.00 0.00 0.00 1077.5
20260508012715 0 193 0.0 0.0 0.00 0.00 0.00 1077.6
20260508012213 0 206 0.0 0.0 0.00 0.00 0.00 1077.6
20260508011932 0 201 0.0 0.0 0.00 0.00 0.00 1077.6
20260508011156 0 196 0.0 0.0 0.00 0.00 0.00 1077.9
20260508010653 0 202 0.0 0.0 0.00 0.00 0.00 1077.9
20260508010156 0 201 0.0 0.0 0.00 0.00 0.00 1077.7
20260508005648 0 207 0.0 0.0 0.00 0.00 0.00 1077.7
20260508005148 0 221 0.0 0.0 0.00 0.00 0.00 1077.9
20260508004649 0 189 0.0 0.0 0.00 0.00 0.00 1077.9
20260508004101 0 179 0.0 0.0 0.00 0.00 0.00 1077.7
20260508003544 0 229 0.0 0.0 0.00 0.00 0.00 1077.7
20260508003044 0 197 0.0 0.0 0.00 0.00 0.00 1077.7